Location: *
(43.0409°N, 0.1694°E)
Time: 11:57:07
(UTC+00:00)

Cosmos 1980 - Pass Details

Date: 03 October 2023
Orbit: 837 x 848 km, 71.0° (Epoch: 01 December)

Event Time Altitude Azimuth Distance (km) Brightness Sun altitude
Rises 05:23:57 0° 326° (NNW) 3,403 6.5 -7.1°
Reaches altitude 10° 05:26:35 10° 318° (NW) 2,466 5.7 -6.6°
Maximum altitude 05:31:36 33° 256° (WSW) 1,373 4.3 -5.7°
Drops below altitude 10° 05:36:35 10° 193° (SSW) 2,457 6.0 -4.8°
Sets 05:39:14 0° 184° (S) 3,389 6.8 -4.3°
